ABS-6

Last updated on Thu Oct 30 2025 00:02:47 GMT+0000 (Coordinated Universal Time)

1 25924U 99053A 25302.48682221 -.00000109 00000+0 00000+0 0 9992 2 25924 0.0198 110.2396 0002624 130.4908 131.6123 1.00271321 95528
UTC large
Height (km)
Speed (km/s)
/
Latitude / Longitude
Inclination (degrees)
Orbital Period (minutes)
Azimuth
Elevation
Range (km)
Doppler Factor

Next 0 passes for location: London (51.5072 / 0.1276)

Sorry there are no passes over London.